This is the latest recevied weather packets stored in our database for station/object HS5XHC-1. If no packets are shown the sender has not sent any weather packets the latest 10 day(s).
| Time | Temp. | Humidity | Pressure | Rain* | Wind** | Luminosity | Snow |
|---|---|---|---|---|---|---|---|
| 1777865443 | 29.44° C | 45% | 970 hPa | - | - | 0 W/m² | - |
| 1777864819 | 29.44° C | 47% | 970 hPa | - | - | 0 W/m² | - |
| 1777864195 | 29.44° C | 46% | 970 hPa | - | - | 0 W/m² | - |
| 1777863570 | 29.44° C | 49% | 970 hPa | - | - | 0 W/m² | - |
| 1777862946 | 28.89° C | 50% | 970 hPa | - | - | 0 W/m² | - |
| 1777862322 | 28.89° C | 51% | 970 hPa | - | - | 0 W/m² | - |
| 1777861698 | 28.33° C | 52% | 970 hPa | - | - | 0 W/m² | - |
| 1777861074 | 27.78° C | 54% | 970 hPa | - | - | 0 W/m² | - |
| 1777860450 | 27.78° C | 55% | 970 hPa | - | - | 0 W/m² | - |
| 1777859826 | 27.78° C | 55% | 970 hPa | - | - | 0 W/m² | - |
| 1777859202 | 27.22° C | 57% | 970 hPa | - | - | 0 W/m² | - |
| 1777858578 | 26.67° C | 58% | 970 hPa | - | - | 0 W/m² | - |
| 1777857954 | 27.22° C | 58% | 969 hPa | - | - | 0 W/m² | - |
| 1777857330 | 26.67° C | 59% | 969 hPa | - | - | 0 W/m² | - |
| 1777856706 | 26.67° C | 57% | 969 hPa | - | - | 0 W/m² | - |
| 1777855458 | 26.67° C | 57% | 969 hPa | - | - | 0 W/m² | - |
| 1777854834 | 27.22° C | 56% | 969 hPa | - | - | 0 W/m² | - |
| 1777854209 | 27.22° C | 57% | 969 hPa | - | - | 0 W/m² | - |
| 1777853585 | 26.67° C | 58% | 969 hPa | - | - | 0 W/m² | - |
| 1777852961 | 27.22° C | 56% | 968 hPa | - | - | 0 W/m² | - |
| 1777852337 | 25.56° C | 60% | 968 hPa | - | - | 0 W/m² | - |
| 1777851713 | 26.11° C | 60% | 968 hPa | - | - | 0 W/m² | - |
| 1777851089 | 26.11° C | 60% | 968 hPa | - | - | 0 W/m² | - |
| 1777850487 | 26.11° C | 58% | 968 hPa | - | - | 0 W/m² | - |
| 1777849842 | 27.22° C | 55% | 968 hPa | - | - | 0 W/m² | - |
* Rain since midnight (hover to see other rain measurements)
** Current wind speed in m/s (hover to see current wind gust speed)